Location: Ponte Samoggia
(44.5667°N, 11.1333°E)
Time: 23:01:42
(UTC+00:00)

Meteor 1-24 Rocket - Pass Details

Date: 26 May 2022
Orbit: 789 x 927 km, 81.3° (Epoch: 29 June)

Event Time Altitude Azimuth Distance (km) Brightness Sun altitude
Exits shadow 00:35:06 33° 153° (SSE) 1,405 4.5 -21.7°
Maximum altitude 00:37:23 53° 95° (E) 1,025 4.2 -21.5°
Drops below altitude 10° 00:42:42 10° 20° (NNE) 2,423 7.3 -21.2°
Sets 00:45:06 0° 16° (NNE) 3,343 8.3 -21.0°
